#timestamp,LO_Frequency,Hit,StdDev 
1683954015.5,286047000.9,N
1683954035.3,286046998.6,N
1683954055.2,286046998.3,N
1683954075.9,286047001.1,N
1683954095.7,286047001.2,N
1683954115.6,286047000.9,N
1683954135.4,286046999.7,N
1683954155.2,286046999.7,N
1683954175.1,286046999.7,N
1683954176.0,286046999.7,N
1683954195.8,286047000.2,N
1683954215.7,286046999.9,N
1683954235.5,286047000.3,N
1683954255.3,286047000.5,N
1683954275.2,286047000.8,N
1683954295.0,286046998.1,N
1683954295.9,286046998.1,N
1683954315.7,286047000.7,N
1683954335.6,286046998.6,N
1683954355.4,286047001.0,N
1683954375.3,286047001.0,N
1683954395.1,286047000.9,N
1683954396.0,286047000.9,N
1683954415.8,286047002.3,N
1683954435.7,286047001.8,N
1683954455.5,286047002.2,N
1683954475.4,286047001.6,N
1683954495.2,286047001.4,N
1683954515.0,286047002.1,N
1683954515.9,286047002.1,N
1683954535.8,286047001.7,N
1683954555.6,286047003.7,N
1683954575.4,286047001.3,N
1683954595.3,286047004.4,Y
1683954615.1,286047004.1,P
1683954635.9,286047004.2,N
1683954655.7,286047004.4,N
1683954675.5,286047001.4,N
1683954695.4,286047004.4,N
1683954715.2,286047001.8,N
1683954735.0,286047002.0,N
1683954735.9,286047002.0,N
1683954755.8,286047002.7,N
1683954775.6,286047002.7,N
1683954795.4,286047001.5,N
1683954815.3,286047001.5,N
1683954835.1,286047001.7,N
1683954855.9,286047002.2,N
1683954875.7,286047004.4,Y
1683954895.5,286047000.6,P
1683954915.4,286047000.5,N
1683954935.2,286047000.5,N
1683954955.0,286047000.7,N
1683954956.0,286047000.7,N
1683954975.8,286046998.3,N
1683954995.6,286047001.2,N
1683955015.5,286046998.1,N
1683955035.3,286047000.7,N
1683955055.1,286047001.0,N
1683955075.9,286046998.5,N
1683955095.7,286046998.5,N
1683955115.5,286047001.1,N
1683955135.4,286046998.1,N
1683955155.2,286047001.1,N
1683955175.1,286046998.2,N
1683955176.0,286046998.2,N
1683955195.8,286047000.8,N
1683955215.6,286047000.9,N
1683955235.5,286047000.7,N
1683955255.3,286046998.3,N
1683955275.1,286047001.2,N
1683955295.9,286047001.2,N
1683955315.7,286047000.5,N
1683955335.6,286047001.1,N
1683955355.4,286047001.0,N
1683955375.2,286047001.2,N
1683955395.1,286047000.8,N
1683955396.0,286047000.8,N
1683955415.8,286047000.8,N
1683955435.6,286046999.3,N
1683955455.5,286046998.3,N
1683955475.3,286046998.3,N
1683955495.1,286046998.7,N
1683955515.9,286047000.7,N
1683955535.7,286046998.2,N
1683955555.6,286046998.6,N
1683955575.4,286046998.4,N
1683955595.2,286046998.9,N
1683955615.1,286046997.1,N
1683955616.0,286046997.1,N
1683955635.8,286046997.3,N
1683955655.6,286046999.6,N
1683955675.5,286046999.6,N
1683955695.3,286046998.8,N
1683955715.2,286046998.1,N
1683955735.9,286047000.9,N
1683955755.7,286046998.5,N
1683955775.6,286046998.7,N
1683955795.4,286046999.4,N
1683955815.2,286046998.6,N
1683955835.1,286046999.6,N
1683955855.6,286046996.7,N
1683955875.4,286046996.5,N
1683955895.2,286046996.9,N
1683955915.1,286046996.9,N
1683955916.0,286046996.9,N
1683955935.8,286046996.6,N
1683955955.7,286046996.5,N
1683955975.5,286046999.3,N
1683955995.3,286046999.6,N
1683956015.2,286046997.4,N
1683956035.0,286046997.2,N
1683956035.9,286046997.2,N
1683956055.7,286046997.6,N
1683956075.6,286046995.3,Y
1683956095.4,286046999.3,P
1683956115.3,286046999.3,N
1683956135.1,286046997.2,P
1683956155.8,286046995.0,Y
1683956175.7,286046996.7,P
1683956195.5,286046997.2,P
1683956215.4,286046997.4,P
1683956235.2,286046997.7,Y
1683956255.0,286046999.3,P
1683956255.9,286046999.3,N
1683956275.8,286046998.6,N
1683956295.6,286046998.2,N
1683956315.4,286046999.0,N
1683956335.3,286046998.5,N
1683956355.1,286047001.0,N
1683956375.9,286047001.2,N
1683956395.7,286046999.0,N
1683956415.5,286046998.2,N
1683956435.4,286046999.2,N
1683956455.2,286046996.7,Y
1683956475.0,286046998.4,P
1683956475.9,286046998.4,P
1683956495.8,286046998.6,P
1683956515.6,286046998.5,Y
1683956535.5,286047002.7,P
1683956555.3,286047002.3,N
1683956575.1,286047002.2,N
1683956595.9,286046999.8,N
1683956615.7,286047000.4,N
1683956635.5,286046999.8,N
1683956655.4,286047002.3,N
1683956675.2,286046999.9,N
1683956695.0,286046999.9,N
1683956696.0,286046999.9,N
1683956715.8,286046998.9,N
1683956735.6,286047000.7,N
1683956755.5,286047001.0,N
1683956775.3,286047001.1,N
1683956795.1,286046999.9,N
1683956815.9,286047000.9,N
1683956835.7,286047000.8,N
1683956855.5,286046998.2,N
1683956875.4,286046998.4,N
1683956895.2,286046998.9,N
1683956915.1,286046998.9,N
1683956916.0,286046998.9,N
1683956935.8,286046999.5,N
1683956955.6,286046999.6,N
1683956975.5,286046997.8,N
1683956995.3,286046995.1,Y
1683957015.1,286046995.0,P
1683957035.9,286046995.9,N
1683957055.7,286046995.2,N
1683957075.6,286046994.9,N
1683957125.4,286046995.2,E
1683957135.4,286046998.5,N
1683957155.2,286047004.3,P
1683957175.0,286047004.1,N
1683957175.9,286047004.1,N
1683957195.8,286047003.9,N
1683957215.6,286047002.2,N
1683957235.4,286047000.7,N
1683957255.3,286046998.5,N
1683957275.1,286046998.3,N
1683957295.9,286046998.4,N
1683957315.7,286046999.3,N
1683957335.5,286046998.8,N
1683957355.4,286047001.1,N
1683957375.2,286046999.0,N
1683957395.0,286047001.0,N
1683957396.0,286047001.0,N
1683957415.8,286046998.7,N
1683957435.6,286047000.7,N
1683957455.5,286047000.4,N
1683957475.3,286047002.7,N
1683957495.1,286047004.3,N
1683957515.9,286047004.2,N
1683957535.7,286047003.2,N
1683957555.5,286047003.4,N
1683957575.4,286047007.6,Y
1683957595.2,286047007.5,P
